Wind_Speed
9 9 10 10 11 11 11 11 12 12 12 12 12 13 13 13 13 13 14 14 14 14 14 14 14 15 15 15 15 14 14 14 14 15 14 15 16 15 14 15 14 14 13 13 12 12 12 13 13 13 13 14 14 13 13 13 12 13 13 14 13 12 10 6 5 7 12 14 16 18 20 23 23 21 23 25 26 25 22 16 15 18 18 18 19 19 18 17
11 11 12 12 13 13 13 13 13 13 13 13 13 14 14 14 14 14 15 15 15 15 15 15 16 16 16 16 16 15 15 15 15 16 16 15 15 14 13 13 12 12 11 12 12 13 14 15 15 14 15 15 15 15 14 14 13 13 14 16 15 13 11 9 9 10 13 17 19 21 21 22 22 23 23 26 27 27 25 19 16 17 15 16 18 20 20 20
13 13 14 14 14 14 14 14 14 14 14 14 14 14 15 15 15 15 16 16 16 16 16 17 17 17 17 17 17 17 16 16 15 16 16 15 13 12 11 11 11 12 13 14 15 16 17 17 17 16 16 15 15 16 15 14 14 14 15 17 15 13 13 12 12 13 14 18 21 22 22 22 23 24 23 25 27 27 25 22 19 17 14 15 18 20 22 23
15 15 15 16 15 15 15 15 15 15 15 15 15 15 16 16 16 17 17 17 17 17 18 18 18 18 18 18 18 18 17 17 15 15 14 13 12 12 12 13 14 15 16 16 16 17 17 17 18 17 16 15 16 17 17 15 15 16 17 17 15 14 16 15 15 16 16 18 21 21 23 23 23 22 22 23 27 26 24 22 20 18 15 16 18 20 22 24
17 17 17 17 16 16 16 16 16 16 16 16 16 17 17 17 18 18 18 18 18 18 19 19 19 19 19 19 18 18 18 16 14 14 15 16 15 14 15 15 16 16 16 16 15 16 15 15 16 16 16 15 16 17 18 16 16 19 19 17 18 18 19 18 17 18 19 21 22 22 24 24 22 21 20 21 25 25 23 22 20 18 15 14 17 18 20 21
18 18 18 18 18 18 18 18 17 17 17 17 17 18 18 18 19 19 19 19 19 19 19 19 19 19 19 19 18 18 17 14 14 16 17 18 16 15 16 15 15 15 14 14 13 14 13 14 14 15 17 17 16 16 16 15 16 19 19 19 21 22 22 20 20 20 21 23 23 23 23 23 23 22 20 21 21 21 22 22 21 18 16 14 16 18 19 19
20 20 20 20 20 19 19 19 19 19 18 18 18 18 19 19 19 19 19 19 19 19 19 19 20 19 20 20 19 19 17 13 14 17 17 17 16 15 15 15 15 14 13 14 14 14 15 16 16 16 19 19 18 17 15 15 16 20 22 21 22 23 24 24 24 24 23 24 25 24 24 24 23 22 23 20 16 17 20 21 22 22 20 18 18 19 20 20
21 21 21 21 20 20 20 19 19 19 19 19 19 19 19 19 19 20 20 20 20 20 20 20 20 20 20 20 20 20 17 13 12 15 16 16 15 14 15 15 16 16 16 16 16 17 17 18 18 19 21 20 19 18 17 17 17 19 21 22 23 25 26 26 27 26 26 26 24 23 25 23 19 20 25 20 15 18 20 22 24 25 23 21 19 19 21 21
21 21 21 21 20 20 20 20 20 20 20 20 20 20 20 20 20 20 20 20 20 21 21 21 21 21 21 21 22 21 18 15 13 14 16 17 17 17 17 17 18 18 17 17 17 18 19 19 19 20 21 20 20 20 18 19 19 20 21 24 26 27 27 27 27 27 26 24 21 21 23 21 16 21 26 20 17 21 22 24 25 25 25 24 21 19 20 22
21 21 21 21 20 20 20 20 20 20 20 20 20 20 20 21 21 21 21 21 21 21 22 22 22 22 22 22 24 23 19 18 17 16 18 20 21 21 20 20 20 20 19 19 19 20 21 20 20 21 21 20 22 21 19 20 22 23 24 26 26 26 26 26 27 25 22 21 20 19 20 19 17 20 23 20 21 24 25 25 24 25 25 25 25 24 23 24
22 21 22 22 22 22 22 22 21 21 21 21 21 22 22 22 22 22 22 23 23 23 23 24 24 24 24 24 25 25 23 23 22 20 20 21 22 22 22 21 21 21 21 21 22 22 22 21 21 21 19 20 22 22 21 22 23 24 26 27 26 25 26 25 24 21 19 20 19 18 19 18 17 20 23 24 27 29 28 25 22 23 24 24 26 26 26 26
22 23 23 23 23 23 23 23 23 23 23 23 23 24 24 24 24 24 24 25 25 25 25 26 26 26 27 27 26 26 26 26 25 23 22 21 21 22 22 22 22 22 22 22 23 24 23 22 21 20 20 22 22 22 21 21 22 23 25 27 26 26 26 23 21 18 17 19 17 17 17 16 18 22 25 28 30 30 29 26 23 23 23 23 23 23 24 24
23 23 23 23 24 24 24 24 24 24 24 24 25 25 25 25 26 26 26 26 26 26 26 27 27 28 28 28 26 26 27 26 26 25 24 22 21 22 22 23 23 23 23 23 24 24 24 23 22 22 23 23 21 21 21 21 23 23 23 24 24 24 24 20 18 15 16 18 16 15 17 18 21 25 29 30 30 30 29 25 23 22 20 19 20 22 22 22
24 24 24 24 24 24 24 24 24 24 24 25 25 25 25 26 26 26 26 27 26 26 26 27 27 27 28 27 25 26 26 26 26 25 25 24 22 22 22 23 23 24 24 24 24 24 24 24 23 22 22 21 20 21 23 22 22 22 22 23 22 21 20 17 16 14 13 16 16 15 18 19 22 27 30 30 29 28 26 21 18 17 16 18 20 21 20 23
24 24 24 24 24 24 24 24 24 24 25 25 25 25 25 25 26 26 26 26 26 26 26 26 27 28 28 27 25 26 26 25 25 24 25 24 22 22 22 22 23 24 24 23 23 23 23 23 22 21 20 20 21 22 23 22 21 22 22 23 22 21 18 15 13 11 10 14 16 16 19 21 26 30 29 29 28 26 24 19 16 15 16 17 18 18 20 22
24 24 24 24 23 23 24 24 24 24 25 25 26 26 26 26 26 26 26 26 27 26 26 26 26 27 27 26 25 25 24 24 24 24 24 23 23 24 24 24 24 24 24 24 24 24 24 23 22 21 20 20 20 21 22 22 23 23 23 24 22 20 18 14 11 11 13 18 20 21 25 28 31 30 27 26 25 24 24 21 20 21 19 16 14 17 20 21
24 24 24 24 24 25 25 25 25 26 26 26 26 26 26 26 27 27 27 27 27 26 27 27 26 27 27 26 25 25 24 23 24 24 23 22 22 23 23 22 20 21 21 21 22 22 21 21 21 21 20 19 18 19 20 21 24 24 22 22 20 17 18 17 17 17 18 22 23 27 31 33 31 27 26 25 24 25 25 26 26 21 16 13 16 18 19 21
24 24 24 25 25 26 26 26 27 27 27 27 27 27 27 28 27 28 28 28 27 27 28 27 26 26 25 23 22 22 21 21 22 22 22 23 22 22 22 21 20 21 21 21 22 22 21 22 23 21 21 21 20 21 23 23 24 22 19 19 19 18 19 21 22 21 21 24 26 27 28 29 27 25 26 25 23 24 25 28 24 14 11 15 18 18 19 20
25 25 25 26 26 26 27 27 27 27 28 28 28 28 28 29 29 29 30 29 28 28 27 27 26 25 23 22 23 23 23 24 26 26 26 27 27 27 27 28 28 28 27 26 27 26 24 25 25 23 24 24 23 24 26 24 21 17 16 18 19 20 21 23 25 24 25 28 27 24 24 25 23 24 25 21 16 19 23 24 16 11 12 15 16 19 21 24
26 26 27 27 27 27 27 27 27 27 27 28 29 29 29 30 30 31 31 30 30 29 28 28 28 29 27 27 28 27 27 28 29 28 29 30 31 31 33 34 33 32 31 28 27 25 23 24 26 26 25 23 21 21 22 20 16 15 16 18 20 23 26 27 27 25 22 23 22 19 20 22 22 26 23 12 9 16 18 15 12 12 13 14 17 22 27 32
27 27 27 27 27 26 26 26 26 26 27 27 28 29 29 30 30 31 32 31 30 29 30 30 30 32 29 28 30 28 28 31 31 30 30 32 33 34 35 35 33 32 29 26 25 23 23 24 24 23 18 15 16 16 16 15 14 16 19 21 23 27 29 27 24 17 13 17 19 18 21 23 24 27 18 5 10 13 10 9 11 13 16 20 24 28 32 36
26 26 27 27 27 26 26 26 25 25 26 26 27 28 28 28 28 29 31 31 29 27 29 29 28 29 25 24 28 26 27 28 28 27 26 29 32 32 33 33 31 28 24 24 23 21 22 22 17 11 8 9 11 12 12 12 13 17 20 23 25 25 25 22 16 12 11 17 21 21 26 26 24 24 13 6 10 9 6 9 13 17 23 27 30 32 34 34
26 26 26 26 26 26 26 26 24 24 24 23 24 24 25 25 25 26 28 30 28 23 25 25 24 24 19 19 23 21 22 23 23 24 23 27 29 28 30 30 28 24 22 22 21 20 19 15 9 6 8 9 10 11 11 12 14 16 19 21 23 21 20 19 16 15 15 19 23 26 29 28 24 19 7 5 9 12 13 16 20 24 27 30 31 31 31 29
26 26 26 27 27 26 25 24 22 22 22 21 20 20 21 21 22 23 24 27 28 21 20 22 21 21 19 19 21 21 23 23 24 25 23 25 26 25 26 26 23 21 20 19 18 18 14 9 7 8 10 11 13 14 14 14 16 17 19 21 22 18 16 18 19 19 20 21 23 25 27 23 15 6 4 6 13 20 20 19 22 26 27 28 29 27 26 24
26 26 26 26 26 24 23 22 21 22 21 19 19 19 19 19 19 21 21 23 25 21 19 21 20 19 19 19 20 22 25 26 26 25 22 23 24 23 22 20 18 15 13 12 14 15 9 6 8 9 8 12 15 14 14 16 18 18 18 18 18 16 14 16 18 20 22 20 18 17 15 11 6 3 6 13 22 26 24 22 24 25 25 26 25 23 21 20
26 26 25 25 25 23 22 22 22 22 21 19 18 18 18 18 17 18 19 20 22 18 14 14 14 13 12 13 16 19 21 22 22 20 19 19 18 16 15 15 12 8 6 8 11 13 9 7 9 9 8 9 11 12 12 14 18 19 17 14 14 15 15 15 17 20 20 17 17 16 12 13 16 15 15 17 23 26 23 23 24 23 22 21 20 19 18 16
26 25 24 24 24 24 23 23 23 23 22 20 18 17 17 16 16 16 15 12 12 10 7 8 8 7 8 8 11 12 11 11 12 12 10 9 9 8 9 10 8 6 6 7 10 10 10 8 9 9 8 9 11 12 11 11 15 19 17 13 13 14 15 16 18 20 22 23 24 20 16 19 22 18 16 14 18 20 20 21 22 21 20 19 18 16 13 12
26 24 23 22 22 25 25 23 24 24 23 21 19 18 17 16 15 14 9 4 2 1 3 7 5 5 8 8 8 9 7 5 5 8 7 5 5 6 7 9 8 7 7 8 11 10 11 11 10 10 11 13 15 14 11 12 17 19 17 15 16 15 15 18 20 22 24 24 18 12 9 13 18 17 13 13 18 19 19 20 21 20 19 18 17 13 9 8
26 24 24 23 23 25 23 21 21 21 21 20 17 16 15 13 12 9 4 2 2 2 4 7 6 5 8 9 9 10 9 6 6 7 7 6 5 6 8 9 9 9 9 11 13 11 12 13 12 14 17 18 18 15 14 16 17 18 18 17 17 17 18 20 21 23 21 16 13 12 11 11 12 13 7 10 16 18 18 19 20 20 18 17 15 11 8 7
26 26 26 25 24 25 23 21 20 18 18 18 16 13 11 9 9 7 4 4 3 3 4 6 8 9 9 9 11 12 11 10 9 9 9 8 9 10 11 11 12 12 12 14 16 14 15 16 15 17 19 19 19 18 18 17 17 18 18 19 19 20 22 21 20 18 11 9 14 15 14 13 7 5 3 6 8 10 12 15 19 19 18 17 14 11 9 9
27 27 27 27 26 25 24 23 22 19 17 14 12 9 7 7 8 6 4 3 5 5 6 8 10 11 11 11 12 13 13 12 10 11 12 13 15 14 14 14 14 14 15 18 18 16 17 18 19 19 18 18 18 18 19 17 17 19 18 20 20 17 14 11 10 8 4 6 10 9 10 16 13 6 4 4 4 6 7 9 14 17 18 18 16 14 12 12
28 28 28 28 28 27 26 25 22 20 18 14 10 8 7 8 10 11 8 6 5 5 7 9 10 11 12 14 14 14 15 14 14 15 15 14 15 15 14 15 15 13 13 14 15 16 20 22 22 21 22 21 19 18 19 19 20 21 22 22 16 7 4 3 3 3 5 8 10 8 7 12 18 17 14 12 14 14 13 13 16 19 20 19 18 16 15 15
29 29 28 27 25 26 26 22 18 17 15 14 11 10 10 9 8 13 14 11 7 4 4 6 6 9 13 15 16 16 17 18 18 16 15 15 17 17 16 16 17 16 14 14 16 18 21 24 25 26 26 25 24 24 24 23 22 21 21 20 12 3 0 3 3 2 5 8 8 8 7 7 12 17 19 22 23 21 20 19 19 20 21 20 19 18 17 18
29 29 28 26 25 25 21 16 14 13 12 13 11 10 13 13 9 11 13 13 11 9 8 9 9 10 13 15 16 17 17 17 18 17 17 19 20 21 21 20 20 20 19 18 19 18 16 19 24 23 21 20 20 20 20 23 23 21 20 17 13 10 6 5 4 3 4 5 7 8 7 5 6 9 13 16 17 17 19 19 19 20 22 21 21 21 20 20
29 27 26 24 24 23 18 14 13 14 14 14 13 15 20 20 15 15 15 14 14 14 15 16 16 16 18 18 19 19 18 16 17 19 21 23 25 26 27 26 25 24 21 18 16 14 14 20 24 22 18 19 18 15 15 18 20 19 19 17 16 17 16 12 11 12 10 7 9 13 12 12 15 16 18 16 17 22 23 23 22 22 23 24 23 22 21 20
29 28 27 23 21 19 17 16 15 17 18 17 18 23 28 26 20 17 15 14 16 19 20 21 22 21 22 23 25 24 22 22 22 23 25 27 29 31 30 28 27 26 24 23 20 15 14 19 21 17 13 14 16 16 17 18 16 13 14 16 17 17 17 15 13 16 14 7 11 18 17 17 18 21 25 22 20 23 23 23 24 24 25 25 23 22 21 21
28 28 26 22 20 19 19 19 18 20 21 21 25 30 31 29 25 21 19 18 17 18 20 20 19 19 19 20 21 20 18 19 21 22 23 23 22 25 29 28 28 28 27 29 28 24 22 24 25 23 17 13 15 16 16 17 17 15 13 13 13 12 13 13 8 6 6 4 10 18 20 19 14 14 22 21 18 21 22 22 24 24 25 24 23 22 21 21
27 27 25 23 22 22 22 21 21 22 23 25 31 33 32 31 29 26 25 24 22 20 20 21 20 20 20 20 21 19 17 17 17 18 21 22 19 19 22 24 27 29 30 30 28 24 23 25 27 29 25 20 20 22 19 18 19 21 19 16 15 12 11 12 8 3 4 3 4 11 18 23 23 22 24 22 19 20 21 22 23 23 22 22 22 22 20 19
27 27 26 26 25 25 25 24 24 25 26 30 35 34 33 33 29 25 24 25 26 24 24 26 25 24 25 26 27 27 25 24 22 21 22 22 21 20 21 23 24 26 27 28 27 25 23 19 19 23 23 20 21 24 23 20 20 22 22 20 20 19 17 16 14 10 7 4 4 7 9 15 22 24 23 21 18 16 17 20 21 20 20 19 19 18 18 17
27 27 28 27 26 26 26 26 27 28 30 34 36 33 32 30 27 25 25 26 27 27 28 29 28 28 30 31 31 31 29 27 25 25 24 23 22 20 20 23 24 24 24 24 25 26 25 21 20 23 23 20 19 20 20 18 17 18 19 19 20 21 20 18 19 20 13 4 3 4 5 14 25 28 25 23 19 15 14 16 17 18 18 18 17 17 18 20
25 27 27 25 24 25 25 26 28 29 31 34 34 33 31 29 29 29 29 29 30 31 31 31 31 32 33 32 33 32 29 27 26 26 27 27 25 23 22 23 24 22 21 21 21 23 22 20 22 26 27 27 24 19 16 15 15 16 16 17 18 19 17 12 12 20 21 12 7 6 4 12 25 28 25 21 18 15 13 14 15 16 18 19 20 21 24 27
24 25 24 22 22 22 23 26 27 28 32 33 33 31 31 31 33 33 33 34 35 34 34 34 34 34 33 33 34 33 30 28 28 28 29 30 28 28 27 26 26 23 21 20 20 21 21 19 21 25 29 32 29 22 18 16 16 16 15 16 17 18 20 16 9 13 19 17 16 11 4 8 21 26 24 21 20 18 15 15 16 16 19 22 26 30 32 35
24 24 24 23 24 23 25 27 29 31 34 34 33 33 33 35 36 37 37 37 36 35 34 35 36 35 35 35 34 34 31 29 29 31 32 31 31 31 31 30 29 27 24 22 21 21 21 19 20 23 28 33 35 32 28 25 24 24 23 24 25 25 28 26 21 18 16 18 21 12 5 14 24 25 25 24 22 19 16 17 19 22 26 31 33 36 37 39
24 24 26 27 27 27 30 32 34 35 35 35 35 36 36 38 39 40 41 39 38 37 34 34 36 35 35 35 34 34 32 29 29 31 32 32 30 29 29 30 31 31 29 26 24 23 21 17 15 14 14 20 26 27 23 23 25 26 27 27 27 26 25 23 23 20 13 16 22 13 9 20 24 20 23 24 21 21 23 27 31 33 34 35 36 38 40 43
25 26 26 27 28 31 33 35 35 36 36 36 37 37 38 40 40 40 41 40 39 38 35 35 36 35 34 34 34 34 34 32 31 31 32 33 34 34 33 31 31 32 31 29 28 27 23 20 18 13 7 8 13 12 8 9 13 16 20 23 23 23 22 19 20 16 9 11 16 13 14 23 22 18 21 23 24 29 33 35 36 37 37 38 39 42 44 46
27 28 28 29 31 33 35 35 35 37 37 37 38 39 39 41 41 39 38 38 38 37 36 36 36 34 33 33 33 33 33 33 32 33 32 30 30 33 34 34 33 33 33 32 32 30 27 27 27 25 21 22 24 21 14 10 11 14 18 20 22 22 22 23 23 18 14 14 18 25 28 28 28 28 29 32 35 37 37 36 36 38 39 41 43 45 45 44
29 30 31 30 29 30 33 35 36 38 37 37 39 40 40 41 40 38 37 37 37 35 35 36 36 34 33 31 31 30 31 30 30 33 34 30 27 27 28 30 31 31 32 33 32 31 28 29 31 29 27 30 32 30 26 23 22 25 27 29 31 29 30 34 32 26 24 19 22 36 39 32 37 43 43 42 42 40 39 39 39 40 41 42 43 43 42 41
30 31 31 31 30 30 32 34 34 34 34 36 39 39 40 40 38 36 35 34 34 33 33 35 36 36 35 33 31 31 31 31 32 33 34 33 32 30 29 30 30 30 30 29 29 29 26 29 33 30 28 31 32 30 30 31 30 32 34 37 40 40 39 41 39 36 35 29 30 42 43 39 44 49 48 47 45 43 43 42 42 42 41 41 40 39 39 39
32 32 32 32 34 35 35 35 33 32 32 33 35 37 39 40 38 36 33 30 30 32 32 34 35 34 34 34 34 34 34 33 33 33 33 34 34 34 34 33 33 34 34 32 31 30 28 31 33 31 30 32 33 31 30 30 31 33 34 37 40 42 41 40 39 39 38 37 40 43 42 45 49 48 48 47 44 43 42 41 41 40 39 38 37 37 37 37
34 35 34 35 36 37 37 37 36 37 36 34 35 37 37 37 38 36 30 27 30 31 31 32 33 31 32 32 33 35 35 34 34 32 31 31 32 33 33 33 34 35 36 35 33 30 28 27 25 23 23 26 28 26 21 22 25 29 33 38 41 42 41 41 42 42 39 39 41 39 39 46 47 43 40 38 36 37 37 37 38 38 37 36 35 35 36 35
36 36 36 36 37 37 38 39 38 38 38 37 39 39 37 37 37 35 32 29 30 30 29 31 31 29 29 31 31 33 33 32 34 33 32 31 30 30 31 31 31 32 32 31 29 27 26 22 20 17 15 20 26 22 20 24 26 30 39 45 46 45 45 44 43 41 39 38 37 35 38 41 37 31 31 32 33 34 35 36 37 35 34 34 33 34 34 33
36 37 36 36 38 38 38 39 38 38 40 40 39 37 36 35 34 33 34 34 33 33 31 30 28 27 28 30 30 30 29 29 31 32 32 33 33 32 31 30 29 30 29 27 26 25 24 23 23 19 16 23 29 25 24 23 19 25 41 46 43 41 39 37 37 37 36 35 34 34 35 33 28 25 28 31 32 33 34 35 35 33 33 33 33 34 34 35
Wind_Direction
281 284 288 291 293 294 295 296 297 298 298 298 298 299 299 299 299 299 299 299 299 300 300 300 301 300 300 300 300 300 300 300 300 300 299 297 300 302 299 299 299 299 300 300 301 301 301 302 303 304 306 306 308 309 308 309 313 314 310 307 311 319 328 321 282 282 291 288 283 279 281 292 302 312 314 309 308 309 309 312 309 301 299 302 300 295 288 280
278 282 285 287 288 289 290 291 292 293 293 294 295 295 295 295 295 295 296 296 297 298 298 299 299 300 300 299 300 300 299 299 301 301 300 300 301 302 301 300 299 300 301 301 301 301 301 300 300 301 301 302 304 304 304 307 309 309 303 301 309 315 311 303 291 284 281 284 285 286 292 301 309 314 312 307 307 306 306 312 308 297 294 294 294 293 290 286
277 279 280 281 283 284 285 287 287 288 289 290 291 291 291 292 292 292 293 293 294 295 296 297 297 298 298 299 300 301 301 301 304 304 302 304 307 307 305 303 301 300 298 299 299 299 301 300 300 301 301 303 304 304 305 310 311 306 298 301 312 313 305 307 308 303 291 287 290 295 301 307 313 313 310 307 304 302 306 314 310 300 293 284 283 285 285 287
274 275 276 277 278 279 281 282 283 284 286 286 287 288 289 289 289 290 290 291 292 294 295 296 296 297 298 299 301 303 304 305 307 305 304 306 307 307 305 303 301 300 299 298 297 298 301 301 303 305 306 309 308 308 311 317 314 305 300 305 313 310 308 314 315 310 303 297 299 304 309 312 314 312 311 308 303 306 314 316 310 305 299 288 285 285 286 290
270 272 273 274 275 276 277 278 280 281 282 283 284 286 286 287 288 288 289 291 292 294 295 296 296 298 299 299 301 304 306 310 310 306 304 304 306 307 305 305 303 303 302 301 300 299 301 301 304 307 307 308 307 309 314 316 311 304 305 311 314 312 313 319 318 315 312 306 307 311 314 313 313 313 313 306 304 313 319 313 309 310 310 298 291 291 294 296
268 268 269 270 271 272 274 275 276 277 278 280 280 282 283 284 285 287 288 289 291 293 294 295 295 297 298 298 300 301 303 310 309 304 302 302 306 309 307 306 305 306 307 307 305 302 302 300 301 304 302 303 302 305 308 308 305 301 305 311 313 311 313 318 316 313 310 306 308 312 313 310 311 314 309 303 308 317 315 310 311 313 315 307 299 299 299 300
267 267 268 269 270 271 272 273 274 275 276 277 278 279 280 282 283 285 287 288 290 290 291 292 293 295 295 295 296 296 299 307 305 300 298 299 303 305 303 303 302 305 306 305 305 302 299 297 300 300 297 300 301 303 302 299 298 298 304 309 308 305 308 313 310 310 309 308 313 313 309 307 310 311 306 309 317 315 309 307 309 310 311 308 303 301 301 302
266 267 268 269 270 271 271 272 274 274 276 276 277 279 280 281 282 284 285 286 288 288 289 289 290 292 292 293 293 292 297 303 298 293 293 294 298 298 299 300 300 300 299 299 298 295 293 294 296 293 295 301 302 302 301 299 294 290 298 299 295 296 303 308 308 309 311 313 314 305 303 308 310 306 306 317 322 311 306 304 305 307 307 307 306 303 302 301
266 267 268 269 270 270 271 272 272 273 274 276 277 278 279 280 281 282 283 285 286 286 287 287 288 288 289 290 289 290 296 297 291 286 287 290 292 292 293 294 293 292 291 291 289 288 289 289 288 289 295 300 298 297 295 293 290 286 289 290 291 296 302 305 305 310 313 313 309 297 300 307 305 301 306 320 324 312 307 305 307 308 308 313 313 308 304 302
267 268 268 269 270 271 272 272 273 274 275 276 277 278 278 279 280 281 282 283 284 285 285 285 286 286 287 288 287 289 293 291 287 283 284 287 289 289 290 289 287 288 287 286 285 284 284 286 288 291 295 294 292 292 288 284 286 289 289 288 294 299 300 301 305 312 313 310 307 296 297 304 303 302 308 320 323 317 313 310 311 311 313 317 318 316 313 309
266 268 269 270 271 272 272 273 274 275 275 276 277 277 277 278 278 279 280 280 281 282 283 283 284 284 284 284 286 290 291 288 286 285 284 285 286 287 287 286 284 284 285 285 284 283 284 287 289 290 289 286 287 288 286 285 286 288 289 291 296 298 299 305 311 315 310 307 309 300 298 306 307 309 314 318 319 319 316 314 316 316 317 318 320 319 315 311
265 266 268 269 270 271 271 272 273 273 274 275 275 276 276 277 278 278 279 279 280 281 281 282 282 282 282 282 285 288 288 287 288 287 285 283 282 283 283 284 283 283 282 281 281 282 285 285 285 284 279 278 283 286 287 288 287 288 292 295 297 299 303 309 313 315 310 308 311 305 297 303 311 312 315 316 318 318 318 321 321 316 317 319 317 311 308 308
263 265 266 268 269 270 270 271 272 272 273 274 275 276 277 278 278 279 279 279 280 280 281 281 281 281 281 282 284 285 284 286 288 287 286 284 281 281 281 281 281 281 280 279 279 280 280 281 280 278 277 278 282 284 284 285 286 289 292 294 297 301 306 312 314 317 315 310 311 303 286 293 309 311 312 315 315 314 316 321 318 314 317 312 304 300 302 301
264 265 267 268 270 271 273 274 275 275 276 276 277 277 278 278 279 279 279 279 280 280 280 280 280 280 280 281 282 281 282 283 284 285 284 284 283 281 279 279 279 279 280 279 278 278 277 278 277 275 277 279 281 282 282 285 286 291 294 293 299 304 309 317 318 320 318 311 311 302 285 291 305 307 309 311 311 313 317 320 319 318 309 297 299 300 295 286
264 265 266 268 270 272 274 275 277 278 278 278 278 278 278 278 279 279 279 279 279 278 279 278 279 278 278 280 280 279 280 280 281 282 282 283 284 282 279 277 277 277 278 277 277 276 276 277 276 276 276 276 280 281 282 283 283 291 294 295 303 303 307 320 321 321 317 308 307 300 291 295 302 304 306 308 312 316 318 325 329 315 300 303 309 296 281 275
263 264 265 267 269 271 272 274 275 276 276 277 277 277 278 278 278 278 278 277 277 277 277 277 277 277 279 279 277 277 277 278 278 278 279 282 282 280 278 275 274 274 274 275 275 275 276 277 275 275 274 275 278 279 282 284 286 293 295 297 303 301 303 311 306 299 291 289 294 296 297 297 300 303 305 309 317 318 316 322 319 308 310 319 307 283 275 274
263 264 266 268 269 270 271 272 273 274 274 275 275 275 276 276 277 277 277 276 276 276 276 276 276 276 278 277 276 277 277 276 276 278 280 281 280 279 276 273 271 272 272 272 272 273 275 276 276 275 275 275 275 277 279 281 290 299 299 295 296 293 293 292 289 291 285 281 286 291 293 294 298 303 305 311 319 318 313 311 307 309 321 312 285 279 278 276
263 265 266 267 268 269 270 271 272 273 274 274 275 275 275 275 276 276 275 274 275 275 275 275 275 276 276 276 277 276 276 275 275 278 281 282 280 278 274 270 270 274 273 270 270 272 274 277 276 273 275 276 278 280 278 281 295 301 296 292 291 289 287 286 289 293 290 287 289 289 287 290 296 301 307 316 319 310 301 301 301 304 304 283 273 279 283 285
264 265 266 267 268 269 270 272 273 273 275 275 275 276 276 276 276 275 274 274 274 274 275 275 274 274 275 278 278 275 274 274 275 277 278 279 277 275 273 271 272 274 273 272 272 273 274 275 273 271 277 282 286 286 283 288 296 293 289 289 290 289 286 284 286 290 292 292 291 287 283 287 293 301 314 323 313 293 290 296 290 273 277 276 280 292 296 296
265 266 268 269 270 271 272 273 273 274 274 274 274 274 275 275 275 275 275 275 275 274 274 275 276 275 275 278 275 273 274 273 273 274 275 275 274 272 272 272 274 274 274 276 275 275 275 271 272 279 286 288 286 282 281 284 283 283 288 287 284 282 280 281 285 289 291 288 287 283 281 285 292 306 322 330 294 285 292 288 260 256 279 290 299 303 300 298
266 267 268 269 271 272 273 273 273 273 273 272 273 273 273 274 274 275 275 274 274 276 275 275 277 277 279 278 274 272 272 271 271 271 271 272 271 271 271 272 273 274 277 279 277 277 275 274 282 290 291 283 273 270 270 271 271 276 278 277 276 273 275 282 289 291 281 277 283 283 282 284 293 308 320 308 281 289 288 264 244 263 287 298 302 299 295 295
266 267 267 268 269 271 273 273 273 273 273 273 273 272 273 273 274 275 277 276 275 276 278 277 277 278 281 277 274 274 270 269 270 269 267 266 266 268 271 272 274 277 280 278 277 276 273 282 297 298 282 268 265 266 265 261 260 263 264 268 271 272 279 288 295 295 279 279 286 288 288 289 296 307 309 276 278 278 269 262 261 275 286 292 294 292 291 292
266 265 266 266 268 271 273 273 273 271 272 272 272 273 273 273 275 277 279 281 280 277 277 279 278 279 279 271 272 276 272 269 267 263 261 262 264 266 269 273 276 279 278 274 273 268 271 292 309 276 268 276 279 279 274 263 257 258 259 264 269 277 288 291 298 300 293 292 293 293 293 292 300 308 293 247 272 275 283 279 269 272 277 281 285 288 290 290
264 263 264 265 267 270 271 270 268 267 270 272 271 271 272 273 276 279 282 285 286 283 279 279 276 276 274 269 270 272 270 267 263 260 259 263 268 270 270 275 276 274 273 270 269 267 276 306 299 271 269 271 276 283 282 270 263 264 264 265 271 282 287 287 294 296 295 298 296 297 296 293 305 323 175 218 269 281 288 281 268 266 269 273 280 286 288 290
263 264 264 266 268 268 267 267 267 269 271 271 269 268 269 271 274 278 285 290 293 294 287 281 278 275 271 267 265 262 260 261 263 265 265 264 267 268 270 272 269 269 268 258 253 263 286 318 293 283 270 262 266 274 278 269 265 268 268 269 276 284 284 284 288 288 291 295 296 305 308 297 284 243 249 263 269 279 284 276 268 267 269 273 278 282 284 290
262 263 264 265 264 264 265 268 271 272 271 266 265 264 264 268 271 278 289 296 299 301 293 279 276 273 269 264 258 254 258 261 262 264 265 261 257 257 257 258 259 259 250 235 237 260 291 311 295 288 275 261 252 260 275 270 265 266 271 279 280 279 279 280 285 285 285 289 292 295 295 284 272 274 294 283 268 274 274 268 267 266 268 270 271 276 281 288
261 262 263 263 264 266 269 271 272 271 268 263 259 259 262 265 269 279 294 303 303 305 285 258 254 253 256 262 258 250 253 258 250 244 244 242 242 242 240 245 248 230 227 227 231 260 297 302 289 285 277 262 255 269 283 269 261 266 275 285 278 276 278 279 283 282 282 288 288 285 281 274 271 284 309 288 263 268 263 258 261 260 260 262 263 269 276 281
258 260 259 260 265 269 270 270 268 265 261 256 251 251 254 256 261 273 289 303 303 342 238 235 225 230 251 265 259 235 224 229 215 207 212 221 240 243 239 241 237 228 232 236 238 264 296 287 280 282 274 270 277 288 285 259 257 264 272 275 272 278 280 282 286 283 286 291 286 281 270 258 273 296 309 275 255 256 254 251 252 250 249 252 255 259 261 259
256 256 255 253 256 262 267 264 260 255 250 245 239 240 244 247 252 253 241 220 217 185 223 238 236 240 254 259 244 218 210 220 219 218 228 241 257 255 245 240 240 246 253 255 257 270 283 279 280 282 280 284 291 293 279 264 261 266 269 268 270 277 278 282 285 280 283 283 265 267 256 240 278 296 278 263 257 247 245 244 241 241 242 245 244 240 236 236
254 253 251 251 251 257 259 250 243 240 237 236 231 231 235 243 246 233 204 202 220 222 209 220 234 240 249 251 236 223 224 233 241 247 250 258 269 269 257 248 249 256 260 266 273 278 278 277 278 282 287 291 290 285 278 272 267 268 268 268 271 277 280 281 275 269 276 269 261 273 262 239 266 305 242 263 268 248 249 245 238 238 239 239 237 234 233 234
253 252 251 252 252 253 247 234 228 229 230 227 222 227 240 251 244 217 192 228 256 256 218 211 227 236 246 248 232 228 237 242 246 255 265 272 272 266 258 250 246 252 257 264 274 279 275 275 279 286 290 287 283 279 276 272 268 268 266 269 276 282 284 278 259 246 227 258 276 293 265 233 227 240 242 249 276 277 273 261 254 256 251 244 242 242 239 234
252 252 252 252 254 252 241 229 228 233 236 235 238 253 256 250 237 219 219 253 273 261 233 227 233 235 241 245 240 240 249 254 258 266 274 275 270 264 258 253 248 251 257 260 267 271 268 270 277 283 285 282 277 271 268 267 266 266 262 263 269 288 303 264 224 202 214 259 284 292 270 235 230 238 244 253 274 279 274 270 270 268 261 252 247 246 241 238
252 252 251 252 251 243 232 230 236 242 245 246 252 262 247 236 235 226 228 242 241 225 225 227 229 234 239 244 247 249 254 259 261 266 271 272 274 272 263 257 251 249 256 263 269 274 276 275 275 278 281 278 270 265 266 268 267 265 262 254 241 212 355 250 241 246 252 269 278 262 261 251 241 243 245 252 261 266 269 270 266 261 256 253 252 250 245 243
252 251 247 245 240 231 227 235 248 251 250 246 248 247 229 223 231 235 237 242 233 224 232 234 232 236 240 242 243 245 251 256 255 259 272 276 275 271 264 260 256 253 258 266 270 273 276 278 278 280 281 276 269 265 265 266 265 265 263 254 240 233 237 243 242 236 255 278 272 255 256 257 245 244 242 244 252 266 277 274 265 257 252 251 254 253 251 248
250 243 235 229 226 229 236 243 243 240 239 241 241 232 225 226 234 239 244 245 234 229 237 241 241 242 245 245 242 241 246 253 256 264 275 275 271 269 268 264 259 254 254 256 262 268 270 276 280 277 269 267 267 260 251 252 257 259 255 246 243 247 249 253 260 262 269 293 275 258 255 259 265 268 263 258 265 277 281 274 265 258 254 254 253 252 251 248
238 230 225 221 223 231 237 235 232 233 235 238 238 236 238 241 242 242 246 243 230 227 234 243 247 248 250 251 249 247 248 255 261 266 269 269 267 265 263 259 255 251 247 248 255 265 267 270 274 270 256 250 252 248 240 239 242 245 240 234 240 250 252 256 266 267 268 277 267 259 257 259 264 270 268 265 270 274 272 266 260 256 255 254 250 248 246 242
222 219 220 221 227 232 232 228 228 233 237 238 239 243 249 250 247 245 247 245 237 231 235 243 248 251 253 255 257 256 251 253 258 259 258 258 259 257 253 252 253 250 250 254 258 259 257 258 261 263 258 247 243 241 234 229 229 233 235 240 247 249 247 247 254 269 258 251 262 258 256 255 251 258 264 264 271 275 269 262 257 253 252 248 243 242 238 236
215 216 220 222 225 227 226 224 226 231 237 241 243 246 251 252 251 250 248 248 249 247 245 245 248 253 257 258 259 257 251 250 253 253 251 247 247 253 251 248 250 252 253 256 255 249 246 252 258 259 258 256 252 249 241 232 234 240 247 252 253 253 249 239 230 242 249 247 261 249 250 257 256 257 264 268 271 273 270 264 258 252 247 241 237 235 233 236
216 219 223 223 221 221 223 225 228 231 235 240 244 247 250 253 257 258 255 253 254 252 252 253 254 257 259 259 259 257 253 253 253 251 248 244 244 250 252 250 251 252 251 250 247 240 235 242 253 254 254 254 252 250 247 241 241 247 253 254 254 257 256 247 239 238 236 238 262 250 244 255 258 262 269 273 275 273 269 264 259 252 247 243 239 239 243 253
218 223 227 225 222 222 225 227 229 232 235 240 245 249 255 260 264 265 262 259 258 256 257 260 259 259 260 259 259 257 253 252 251 248 247 246 245 248 250 252 252 249 247 243 241 240 237 235 244 251 253 249 245 247 248 244 239 239 244 248 249 249 251 252 250 245 240 230 240 247 246 252 258 267 273 275 276 271 258 254 253 251 248 244 247 256 267 276
223 228 231 228 225 225 228 230 233 236 240 245 250 254 260 266 269 270 269 265 262 259 259 259 258 257 259 257 255 253 251 249 249 247 247 248 247 246 246 247 247 247 246 241 236 238 237 232 236 244 249 249 248 247 245 241 233 230 234 237 241 247 250 253 252 248 249 246 234 237 256 257 259 265 271 274 275 268 257 256 257 253 250 251 259 273 283 288
235 237 240 237 233 235 238 242 245 246 249 253 257 261 266 269 271 273 272 268 264 261 259 257 255 253 253 252 252 252 251 251 250 248 248 248 247 246 246 246 247 245 243 239 233 234 237 235 237 241 246 251 253 250 242 235 230 231 236 241 247 257 259 254 251 254 254 253 255 258 261 259 263 268 273 278 277 272 265 261 256 250 257 269 278 286 290 292
249 251 254 252 250 249 247 248 250 252 257 263 265 267 268 268 270 271 268 265 263 261 257 255 255 253 252 252 251 251 251 252 252 249 248 248 247 247 245 245 247 247 245 242 239 239 241 241 244 249 254 257 258 257 255 252 249 247 252 257 258 262 262 258 256 257 257 257 261 268 270 264 268 272 273 272 270 267 265 267 270 274 281 288 291 292 293 294
256 258 260 258 257 253 250 251 253 255 263 269 266 266 266 264 265 266 264 262 261 259 255 254 256 255 255 254 252 251 251 251 252 250 247 246 246 246 245 244 245 246 247 246 246 245 244 241 238 247 266 268 263 261 259 256 252 252 254 255 254 255 254 253 255 257 257 255 255 254 257 261 265 268 265 262 263 271 281 288 292 293 294 294 294 294 294 295
250 253 254 254 253 251 252 255 255 257 262 263 262 263 263 261 261 262 260 259 259 258 255 255 256 256 255 254 253 251 250 248 251 252 251 250 250 250 250 249 247 247 248 249 251 252 252 249 240 231 225 247 259 260 248 228 228 236 243 243 244 245 243 252 267 264 251 251 251 249 254 257 257 253 252 259 272 282 290 294 295 295 294 293 292 294 295 296
248 248 249 249 248 250 254 256 253 254 257 257 258 260 259 258 259 260 258 257 257 255 254 254 256 256 254 252 251 251 250 247 247 249 250 251 251 251 253 253 252 252 253 254 256 257 256 254 251 246 240 245 257 262 259 248 237 240 243 240 240 239 242 261 275 266 259 271 269 265 267 267 265 259 257 268 280 287 290 289 288 289 289 290 292 293 295 296
250 250 251 251 249 250 253 252 252 253 255 254 254 256 258 258 258 258 256 255 256 254 252 252 253 251 249 248 246 246 248 246 244 245 246 246 246 246 247 249 250 251 252 253 254 253 253 253 254 253 252 255 261 262 261 263 265 262 260 257 255 250 251 262 270 268 269 274 269 267 269 272 272 270 271 277 285 288 288 286 287 288 289 290 291 292 294 296
252 253 254 252 251 252 254 255 257 257 256 253 252 254 257 257 255 255 255 255 255 253 250 248 249 248 247 246 244 244 247 246 243 244 245 245 246 246 246 246 247 248 249 250 250 251 253 255 255 257 259 259 260 261 262 266 269 269 268 267 266 263 262 265 268 270 269 265 264 269 271 271 273 274 277 282 287 289 289 289 289 289 289 289 291 293 295 295
253 254 254 252 253 256 258 260 260 257 255 252 250 253 255 253 253 255 255 253 253 252 249 247 247 247 246 247 247 246 246 245 244 245 245 245 246 248 250 251 251 253 252 253 254 255 257 260 261 262 263 263 264 264 264 266 267 267 267 268 268 268 268 269 269 270 268 264 265 269 270 271 274 276 280 285 288 289 289 290 290 290 291 292 293 294 293 291
256 256 256 254 256 259 259 259 257 254 253 250 248 253 254 251 252 252 248 248 251 251 250 251 252 250 246 247 248 248 249 248 248 248 247 246 246 248 250 252 252 253 254 256 257 256 257 260 262 261 261 262 262 261 258 259 265 270 271 269 267 268 269 270 270 270 268 265 267 268 266 270 277 282 284 286 286 287 288 288 289 290 291 291 292 291 288 285
258 258 257 256 258 260 259 259 257 254 252 250 250 254 253 251 252 248 239 240 246 247 248 251 254 253 249 248 248 250 250 249 248 249 249 248 249 249 250 251 252 254 256 259 259 256 253 252 250 248 251 256 259 261 265 269 277 280 274 269 268 269 271 272 272 273 271 268 269 266 264 272 283 288 286 285 285 286 287 287 287 286 286 286 286 285 283 284
261 259 258 256 256 256 255 255 253 250 251 253 253 254 253 254 256 250 240 237 239 241 244 247 248 249 248 249 250 249 248 245 246 248 249 250 251 251 250 250 252 256 259 260 260 258 253 248 247 249 256 263 268 274 279 282 287 279 270 269 272 274 274 275 276 277 276 273 270 268 271 281 288 286 283 285 285 285 283 282 281 280 280 281 282 282 283 285
Height
3180 3180 3180 3181 3181 3181 3181 3181 3182 3182 3182 3181 3181 3181 3181 3181 3181 3181 3181 3181 3181 3181 3181 3180 3180 3180 3180 3180 3180 3180 3180 3180 3179 3179 3179 3179 3178 3179 3179 3178 3178 3178 3178 3178 3178 3178 3178 3178 3178 3178 3178 3177 3177 3177 3177 3177 3177 3176 3176 3176 3176 3177 3178 3178 3178 3178 3177 3177 3177 3177 3176 3175 3175 3175 3173 3171 3170 3170 3170 3172 3171 3170 3169 3168 3167 3166 3165 3165
3179 3179 3179 3180 3180 3180 3180 3180 3180 3180 3180 3180 3180 3180 3180 3180 3180 3179 3179 3179 3179 3179 3179 3179 3179 3178 3178 3178 3178 3178 3178 3178 3178 3177 3177 3177 3177 3177 3177 3177 3177 3177 3177 3177 3177 3177 3177 3176 3177 3177 3176 3176 3176 3176 3176 3176 3176 3175 3174 3174 3175 3176 3176 3176 3176 3176 3176 3175 3175 3175 3174 3174 3173 3173 3172 3169 3168 3167 3167 3168 3169 3168 3167 3166 3165 3163 3162 3162
3177 3178 3178 3178 3178 3178 3179 3179 3179 3179 3179 3179 3179 3178 3178 3178 3178 3178 3178 3177 3177 3177 3177 3177 3177 3177 3177 3176 3176 3177 3177 3177 3177 3176 3176 3176 3176 3176 3176 3176 3175 3175 3175 3176 3175 3175 3175 3175 3175 3175 3175 3175 3174 3174 3174 3174 3174 3174 3173 3173 3174 3174 3174 3175 3175 3175 3175 3174 3173 3173 3172 3172 3172 3171 3170 3168 3165 3165 3165 3165 3165 3165 3165 3164 3163 3161 3160 3159
3176 3176 3176 3176 3176 3177 3177 3177 3177 3177 3177 3177 3177 3177 3177 3176 3176 3176 3176 3176 3176 3176 3176 3175 3175 3175 3175 3175 3175 3175 3175 3175 3175 3175 3174 3174 3174 3175 3174 3174 3174 3174 3174 3174 3174 3174 3174 3173 3172 3173 3173 3173 3172 3172 3172 3173 3172 3171 3171 3171 3172 3172 3172 3173 3173 3172 3173 3172 3171 3171 3170 3169 3170 3169 3168 3166 3163 3162 3163 3163 3162 3162 3162 3162 3161 3159 3158 3157
3174 3174 3174 3174 3175 3175 3175 3175 3175 3175 3175 3175 3175 3175 3175 3175 3175 3174 3174 3174 3174 3174 3174 3174 3173 3173 3173 3173 3173 3173 3173 3174 3174 3173 3173 3173 3173 3173 3173 3173 3173 3172 3172 3172 3172 3172 3172 3172 3171 3171 3171 3171 3171 3170 3170 3170 3170 3169 3169 3169 3170 3170 3169 3170 3170 3170 3170 3169 3168 3168 3168 3167 3167 3166 3165 3164 3162 3161 3161 3160 3160 3160 3160 3160 3159 3158 3157 3156
3172 3172 3172 3173 3173 3173 3173 3173 3174 3174 3174 3174 3174 3173 3173 3173 3173 3173 3173 3173 3173 3173 3173 3172 3172 3172 3172 3172 3172 3172 3173 3173 3172 3172 3171 3171 3171 3171 3171 3171 3171 3171 3171 3171 3171 3170 3170 3170 3170 3170 3169 3169 3170 3170 3169 3169 3168 3167 3167 3167 3167 3167 3167 3167 3168 3168 3167 3166 3166 3166 3166 3165 3164 3164 3163 3162 3161 3160 3159 3158 3157 3158 3158 3158 3157 3156 3156 3155
3170 3170 3170 3171 3171 3171 3171 3172 3172 3172 3172 3172 3172 3172 3171 3171 3171 3171 3171 3171 3171 3171 3171 3171 3170 3171 3170 3170 3170 3170 3171 3172 3171 3170 3170 3169 3170 3170 3169 3169 3169 3169 3169 3169 3169 3169 3169 3169 3169 3168 3168 3168 3168 3168 3168 3168 3167 3165 3164 3165 3165 3165 3165 3165 3165 3166 3165 3164 3164 3164 3163 3162 3162 3161 3159 3159 3159 3159 3157 3156 3155 3155 3156 3156 3156 3155 3154 3154
3168 3168 3169 3169 3169 3169 3169 3170 3170 3170 3170 3170 3170 3170 3170 3170 3169 3169 3169 3169 3169 3169 3169 3169 3169 3169 3169 3168 3168 3169 3170 3171 3171 3169 3168 3168 3168 3168 3168 3168 3168 3168 3168 3168 3168 3167 3167 3167 3167 3166 3166 3166 3166 3166 3166 3166 3165 3164 3163 3164 3163 3163 3163 3163 3163 3162 3162 3162 3162 3161 3159 3159 3160 3158 3156 3157 3157 3156 3156 3154 3153 3153 3153 3153 3154 3154 3153 3152
3166 3166 3167 3167 3167 3167 3167 3167 3167 3168 3168 3168 3168 3168 3167 3167 3167 3167 3167 3167 3167 3167 3167 3167 3167 3167 3167 3167 3166 3167 3168 3169 3169 3169 3167 3167 3167 3167 3166 3166 3166 3166 3166 3166 3166 3165 3165 3165 3165 3164 3164 3164 3164 3164 3164 3163 3163 3162 3162 3162 3161 3161 3161 3161 3160 3160 3160 3159 3159 3158 3157 3157 3157 3155 3154 3155 3154 3153 3153 3152 3151 3150 3150 3150 3151 3151 3150 3149
3164 3164 3164 3165 3165 3165 3165 3165 3165 3165 3165 3165 3165 3165 3165 3165 3165 3165 3165 3165 3165 3165 3165 3165 3165 3165 3165 3165 3164 3165 3166 3166 3167 3167 3166 3166 3165 3165 3165 3164 3164 3163 3163 3163 3163 3163 3162 3163 3163 3162 3162 3162 3161 3162 3162 3161 3161 3160 3160 3159 3159 3159 3159 3158 3158 3158 3158 3157 3156 3154 3154 3155 3154 3153 3152 3152 3151 3150 3149 3149 3148 3147 3147 3147 3147 3147 3146 3145
3161 3162 3162 3162 3162 3162 3162 3162 3163 3163 3163 3163 3163 3163 3163 3163 3163 3163 3163 3162 3162 3162 3162 3162 3162 3162 3162 3162 3162 3162 3163 3163 3163 3164 3164 3164 3163 3163 3162 3162 3162 3162 3161 3161 3161 3160 3160 3160 3161 3161 3160 3160 3159 3159 3160 3159 3158 3158 3157 3156 3157 3157 3156 3156 3156 3155 3155 3154 3154 3151 3150 3152 3152 3150 3149 3149 3148 3148 3146 3146 3146 3145 3144 3144 3144 3143 3142 3140
3159 3159 3159 3159 3159 3160 3160 3160 3160 3160 3161 3161 3161 3161 3161 3160 3160 3160 3160 3160 3160 3160 3160 3160 3159 3160 3159 3160 3160 3160 3159 3159 3160 3161 3161 3161 3161 3160 3160 3160 3159 3159 3159 3159 3158 3158 3158 3158 3159 3158 3158 3157 3158 3158 3157 3157 3156 3156 3155 3153 3153 3154 3153 3154 3154 3153 3152 3150 3150 3149 3146 3148 3149 3148 3147 3147 3146 3145 3144 3143 3143 3142 3142 3142 3141 3139 3138 3137
3155 3156 3156 3156 3156 3157 3157 3157 3157 3157 3158 3158 3158 3158 3158 3158 3157 3157 3157 3157 3157 3157 3157 3157 3156 3157 3156 3157 3159 3158 3157 3157 3157 3157 3157 3158 3158 3158 3158 3157 3157 3157 3157 3157 3156 3156 3156 3156 3156 3156 3156 3155 3156 3156 3155 3155 3154 3154 3154 3151 3151 3151 3151 3152 3151 3150 3149 3147 3147 3147 3144 3144 3146 3146 3145 3145 3144 3142 3142 3141 3140 3140 3140 3139 3138 3136 3135 3131
3152 3152 3152 3153 3153 3153 3154 3154 3154 3154 3155 3155 3155 3155 3155 3155 3155 3154 3154 3154 3154 3154 3154 3154 3154 3154 3153 3155 3156 3155 3154 3155 3154 3154 3154 3155 3155 3155 3155 3155 3154 3154 3154 3154 3154 3154 3154 3154 3154 3154 3154 3154 3154 3154 3153 3153 3152 3152 3152 3150 3149 3149 3148 3149 3149 3147 3146 3145 3145 3145 3142 3141 3143 3143 3143 3143 3142 3140 3139 3139 3138 3138 3137 3136 3134 3132 3129 3125
3149 3149 3149 3149 3149 3150 3150 3151 3151 3151 3152 3152 3152 3152 3152 3152 3152 3152 3152 3151 3151 3151 3151 3151 3151 3151 3151 3152 3153 3152 3152 3152 3152 3152 3151 3152 3153 3152 3152 3152 3152 3151 3151 3151 3151 3151 3151 3151 3151 3152 3152 3152 3152 3152 3151 3150 3150 3151 3149 3148 3148 3147 3146 3147 3147 3146 3145 3143 3143 3142 3140 3139 3140 3141 3141 3140 3139 3138 3136 3136 3136 3135 3134 3133 3131 3127 3124 3122
3146 3146 3146 3146 3146 3147 3147 3148 3148 3148 3149 3149 3149 3149 3149 3149 3149 3149 3149 3149 3148 3148 3148 3148 3148 3148 3148 3149 3150 3149 3149 3150 3149 3149 3149 3149 3150 3149 3149 3149 3149 3149 3149 3149 3148 3148 3148 3149 3149 3149 3150 3150 3150 3149 3148 3147 3148 3149 3147 3145 3146 3145 3144 3144 3145 3145 3144 3142 3142 3141 3138 3136 3137 3138 3138 3137 3136 3135 3133 3133 3132 3131 3131 3130 3126 3122 3120 3119
3143 3143 3144 3144 3144 3144 3144 3145 3145 3145 3145 3145 3145 3145 3146 3145 3145 3146 3145 3145 3146 3146 3145 3145 3145 3145 3145 3146 3146 3146 3147 3147 3146 3146 3146 3147 3147 3146 3146 3146 3146 3146 3146 3146 3146 3146 3146 3146 3146 3146 3147 3148 3148 3148 3146 3145 3145 3146 3145 3143 3143 3143 3143 3142 3142 3142 3142 3141 3140 3139 3135 3133 3134 3135 3134 3134 3133 3132 3130 3129 3129 3129 3128 3126 3122 3119 3118 3118
3141 3141 3141 3141 3141 3141 3141 3142 3142 3142 3142 3142 3142 3142 3142 3142 3142 3142 3142 3142 3143 3143 3142 3142 3142 3142 3142 3143 3144 3144 3144 3144 3144 3144 3144 3144 3144 3144 3143 3143 3143 3143 3144 3144 3144 3144 3144 3144 3143 3144 3145 3145 3146 3146 3143 3142 3143 3143 3143 3142 3141 3142 3141 3140 3140 3140 3140 3139 3138 3136 3133 3131 3132 3132 3131 3131 3131 3129 3127 3127 3127 3126 3124 3120 3118 3117 3117 3117
3138 3138 3138 3138 3138 3138 3139 3139 3139 3139 3139 3139 3139 3139 3139 3139 3139 3138 3138 3139 3139 3140 3139 3138 3139 3139 3139 3140 3140 3141 3141 3141 3141 3141 3141 3141 3140 3140 3140 3140 3140 3140 3140 3142 3141 3141 3142 3141 3140 3141 3142 3143 3143 3143 3140 3140 3141 3141 3140 3140 3139 3139 3138 3138 3137 3137 3137 3135 3134 3133 3131 3130 3130 3130 3129 3129 3128 3126 3124 3124 3124 3122 3120 3117 3116 3116 3115 3115
3135 3135 3135 3135 3135 3135 3136 3136 3136 3136 3136 3136 3135 3136 3136 3135 3135 3134 3134 3135 3135 3136 3136 3135 3135 3136 3137 3138 3136 3137 3138 3137 3137 3138 3138 3137 3137 3137 3136 3135 3136 3136 3137 3139 3138 3138 3139 3138 3137 3138 3140 3140 3140 3140 3138 3138 3138 3137 3138 3138 3137 3136 3135 3135 3135 3135 3135 3132 3130 3130 3129 3128 3128 3128 3127 3126 3124 3123 3121 3121 3120 3119 3118 3116 3116 3115 3114 3112
3131 3131 3132 3132 3132 3132 3132 3132 3133 3133 3132 3132 3132 3132 3132 3132 3132 3130 3130 3131 3132 3133 3132 3133 3132 3131 3133 3134 3131 3133 3134 3133 3133 3134 3135 3133 3133 3133 3132 3131 3132 3133 3134 3135 3134 3135 3136 3135 3135 3136 3136 3136 3137 3136 3135 3135 3135 3135 3136 3135 3135 3134 3132 3133 3133 3133 3133 3130 3128 3128 3127 3126 3126 3126 3125 3124 3122 3119 3119 3119 3118 3117 3116 3115 3114 3114 3112 3110
3128 3128 3128 3129 3129 3129 3129 3129 3130 3130 3129 3129 3129 3129 3129 3128 3128 3127 3126 3126 3129 3130 3128 3129 3129 3127 3130 3129 3127 3129 3130 3128 3129 3130 3131 3130 3128 3129 3128 3128 3129 3131 3132 3131 3131 3132 3132 3132 3133 3132 3132 3133 3133 3134 3133 3133 3133 3134 3134 3134 3132 3131 3131 3131 3132 3131 3131 3129 3127 3126 3125 3124 3125 3124 3123 3122 3119 3117 3117 3119 3118 3116 3115 3113 3112 3111 3110 3109
3125 3125 3125 3125 3126 3126 3126 3126 3127 3126 3126 3126 3126 3126 3126 3125 3125 3124 3123 3121 3124 3128 3126 3125 3125 3124 3126 3125 3124 3125 3125 3125 3125 3125 3127 3126 3125 3127 3126 3125 3127 3128 3129 3128 3128 3128 3128 3129 3130 3129 3130 3130 3130 3131 3131 3131 3132 3132 3132 3131 3130 3130 3130 3129 3129 3129 3129 3127 3126 3124 3122 3121 3122 3121 3120 3120 3117 3114 3115 3117 3116 3114 3113 3112 3110 3109 3108 3107
3122 3122 3122 3122 3123 3123 3123 3123 3123 3123 3123 3123 3123 3123 3123 3122 3122 3121 3121 3119 3119 3123 3124 3122 3122 3121 3122 3122 3121 3122 3121 3121 3121 3122 3124 3123 3123 3124 3123 3123 3124 3125 3125 3125 3125 3125 3125 3126 3127 3127 3128 3128 3128 3129 3129 3129 3129 3129 3129 3129 3127 3128 3129 3127 3126 3126 3126 3126 3124 3122 3118 3116 3117 3118 3118 3117 3114 3111 3112 3113 3113 3112 3111 3110 3108 3107 3107 3106
3119 3119 3119 3119 3119 3120 3120 3120 3120 3120 3121 3121 3121 3121 3120 3120 3120 3119 3119 3117 3115 3119 3120 3118 3118 3118 3118 3118 3118 3118 3117 3117 3117 3119 3120 3120 3120 3121 3121 3121 3121 3122 3123 3123 3123 3122 3123 3125 3125 3125 3126 3127 3127 3127 3127 3127 3127 3127 3127 3126 3126 3126 3126 3125 3125 3124 3123 3123 3122 3121 3117 3112 3112 3116 3117 3116 3112 3109 3109 3109 3109 3108 3108 3107 3107 3106 3105 3104
3115 3115 3115 3116 3116 3116 3117 3117 3117 3118 3118 3119 3119 3118 3118 3118 3118 3118 3118 3116 3113 3115 3116 3115 3114 3114 3114 3115 3115 3115 3115 3115 3115 3116 3117 3117 3118 3118 3119 3119 3119 3120 3121 3121 3122 3121 3121 3123 3123 3123 3124 3125 3126 3126 3126 3126 3125 3125 3124 3125 3125 3124 3124 3124 3124 3123 3121 3120 3119 3121 3120 3111 3106 3111 3114 3112 3109 3107 3107 3106 3105 3105 3106 3105 3105 3104 3104 3103
3112 3112 3112 3112 3113 3113 3114 3114 3114 3114 3116 3117 3116 3116 3117 3117 3117 3117 3117 3116 3112 3112 3113 3112 3112 3112 3112 3112 3112 3113 3113 3113 3113 3114 3115 3115 3116 3117 3117 3117 3118 3119 3119 3120 3121 3120 3120 3121 3121 3122 3123 3124 3124 3125 3125 3125 3124 3122 3123 3124 3123 3122 3123 3122 3122 3121 3119 3117 3116 3117 3119 3111 3102 3104 3108 3106 3105 3104 3104 3103 3102 3103 3104 3103 3104 3103 3102 3101
3108 3109 3109 3110 3110 3110 3110 3111 3111 3112 3113 3114 3114 3114 3114 3115 3116 3115 3117 3117 3111 3109 3111 3110 3111 3111 3111 3111 3111 3111 3112 3112 3112 3113 3114 3115 3115 3115 3116 3116 3117 3117 3118 3118 3118 3118 3119 3119 3120 3120 3121 3121 3122 3123 3123 3123 3122 3120 3121 3121 3121 3121 3121 3120 3120 3119 3117 3115 3111 3112 3115 3110 3100 3100 3103 3101 3100 3100 3100 3100 3100 3101 3102 3102 3102 3101 3101 3100
3104 3105 3106 3107 3108 3107 3107 3108 3108 3109 3110 3111 3112 3112 3112 3113 3114 3113 3116 3115 3109 3107 3109 3109 3110 3110 3109 3110 3110 3110 3111 3112 3112 3113 3113 3114 3114 3114 3114 3115 3115 3116 3116 3116 3115 3116 3116 3117 3118 3118 3118 3119 3119 3120 3120 3120 3119 3118 3119 3118 3118 3119 3118 3118 3117 3116 3116 3112 3108 3108 3111 3108 3100 3097 3099 3098 3097 3097 3097 3098 3098 3099 3100 3100 3100 3100 3099 3099
3100 3101 3103 3104 3105 3105 3105 3105 3105 3106 3107 3108 3109 3109 3110 3111 3112 3112 3114 3111 3106 3106 3108 3108 3108 3108 3108 3109 3109 3109 3110 3111 3111 3112 3112 3113 3113 3113 3114 3114 3114 3114 3114 3113 3113 3114 3114 3114 3115 3115 3116 3116 3116 3116 3116 3117 3116 3116 3116 3116 3116 3116 3115 3116 3114 3113 3114 3108 3104 3105 3106 3106 3102 3097 3096 3096 3095 3096 3096 3097 3097 3098 3098 3098 3098 3098 3097 3097
3097 3098 3099 3100 3101 3102 3102 3102 3101 3103 3104 3105 3106 3107 3109 3109 3110 3111 3110 3106 3105 3106 3106 3106 3107 3107 3107 3108 3108 3108 3109 3109 3110 3111 3111 3112 3112 3112 3112 3112 3112 3112 3112 3111 3111 3111 3111 3111 3111 3112 3113 3113 3113 3113 3113 3114 3114 3113 3114 3113 3114 3114 3113 3113 3111 3112 3112 3105 3101 3103 3103 3103 3101 3096 3095 3095 3094 3095 3096 3096 3097 3097 3097 3096 3096 3096 3096 3096
3093 3094 3095 3096 3097 3098 3097 3097 3098 3100 3102 3103 3104 3105 3107 3108 3107 3105 3105 3105 3105 3104 3103 3104 3105 3105 3106 3106 3106 3107 3107 3108 3109 3109 3109 3110 3109 3109 3110 3110 3111 3111 3110 3109 3109 3109 3108 3108 3109 3109 3110 3111 3111 3110 3110 3111 3111 3111 3111 3112 3113 3113 3112 3111 3110 3109 3107 3101 3100 3101 3100 3099 3096 3094 3094 3093 3093 3093 3094 3095 3096 3096 3095 3094 3094 3094 3094 3094
3089 3090 3091 3092 3094 3094 3093 3093 3095 3097 3098 3100 3101 3102 3104 3105 3102 3099 3101 3104 3103 3102 3103 3104 3104 3104 3105 3105 3105 3106 3106 3106 3107 3107 3107 3107 3106 3107 3108 3108 3109 3109 3108 3107 3107 3106 3104 3104 3106 3107 3107 3107 3107 3107 3107 3108 3108 3108 3108 3109 3111 3111 3111 3109 3106 3105 3102 3099 3099 3099 3098 3096 3092 3092 3092 3091 3092 3092 3093 3094 3094 3094 3094 3093 3092 3092 3092 3092
3085 3086 3087 3088 3089 3090 3090 3091 3093 3094 3095 3096 3098 3100 3101 3099 3096 3096 3098 3100 3101 3101 3102 3102 3102 3103 3103 3103 3103 3104 3104 3104 3104 3105 3105 3104 3104 3104 3105 3106 3106 3106 3106 3106 3104 3103 3102 3100 3101 3103 3103 3103 3103 3104 3104 3104 3105 3105 3106 3106 3106 3106 3107 3105 3102 3101 3100 3098 3098 3098 3096 3092 3089 3090 3090 3090 3091 3091 3091 3092 3092 3092 3092 3091 3091 3090 3089 3089
3081 3082 3084 3084 3085 3086 3088 3089 3090 3091 3092 3093 3095 3096 3094 3092 3092 3093 3095 3096 3098 3099 3099 3099 3100 3100 3100 3100 3101 3101 3102 3102 3102 3103 3102 3101 3101 3101 3101 3102 3103 3103 3103 3103 3101 3100 3100 3097 3097 3099 3099 3100 3100 3101 3102 3102 3102 3102 3102 3103 3102 3102 3102 3101 3099 3098 3098 3098 3096 3094 3093 3089 3088 3088 3087 3088 3089 3089 3089 3089 3090 3090 3089 3089 3088 3087 3087 3086
3077 3078 3080 3081 3082 3083 3085 3086 3087 3088 3089 3090 3091 3089 3087 3088 3090 3091 3092 3094 3095 3096 3096 3096 3097 3097 3097 3097 3098 3099 3100 3100 3100 3100 3099 3099 3098 3097 3097 3098 3099 3100 3099 3099 3098 3098 3097 3094 3094 3095 3096 3097 3097 3097 3099 3099 3099 3099 3099 3099 3099 3100 3100 3099 3098 3097 3098 3097 3092 3089 3088 3087 3086 3085 3083 3084 3086 3086 3086 3086 3087 3087 3086 3086 3085 3084 3084 3083
3072 3074 3075 3077 3078 3079 3081 3082 3084 3085 3085 3086 3085 3082 3082 3085 3088 3089 3090 3091 3092 3094 3094 3094 3094 3094 3094 3093 3094 3095 3097 3097 3097 3097 3097 3097 3095 3093 3094 3095 3095 3096 3096 3096 3096 3096 3095 3092 3092 3093 3093 3094 3095 3095 3096 3096 3097 3096 3096 3097 3097 3098 3098 3098 3097 3096 3096 3095 3089 3085 3085 3085 3084 3082 3080 3081 3083 3083 3083 3083 3084 3083 3083 3082 3082 3082 3081 3080
3068 3070 3071 3073 3074 3075 3077 3079 3080 3081 3082 3081 3079 3078 3079 3081 3083 3087 3088 3089 3090 3091 3092 3092 3091 3091 3091 3091 3091 3092 3093 3093 3093 3093 3093 3093 3092 3090 3091 3092 3092 3092 3092 3092 3092 3093 3092 3090 3089 3090 3090 3091 3092 3092 3092 3093 3094 3093 3094 3095 3095 3095 3095 3095 3096 3094 3093 3091 3086 3083 3082 3081 3080 3078 3078 3079 3081 3081 3081 3080 3080 3080 3080 3080 3079 3079 3078 3077
3064 3065 3067 3068 3070 3071 3073 3075 3076 3077 3077 3075 3073 3074 3075 3077 3080 3084 3086 3087 3087 3088 3087 3088 3088 3088 3088 3088 3088 3089 3090 3089 3090 3090 3090 3089 3088 3087 3087 3088 3087 3087 3088 3089 3089 3089 3090 3089 3087 3087 3087 3087 3088 3088 3088 3089 3091 3091 3091 3092 3092 3092 3091 3091 3091 3089 3088 3087 3084 3082 3080 3077 3076 3076 3076 3077 3078 3079 3079 3078 3078 3078 3077 3077 3077 3077 3076 3075
3059 3061 3062 3064 3066 3067 3069 3071 3072 3072 3071 3069 3069 3071 3072 3074 3077 3079 3082 3083 3083 3084 3083 3084 3085 3084 3083 3084 3084 3085 3086 3086 3086 3087 3086 3086 3085 3085 3085 3084 3084 3084 3084 3085 3086 3086 3087 3087 3085 3084 3084 3084 3084 3084 3085 3086 3087 3088 3088 3088 3088 3088 3088 3087 3086 3084 3084 3084 3083 3081 3078 3074 3074 3074 3074 3075 3076 3077 3076 3076 3076 3076 3076 3075 3075 3074 3074 3073
3055 3056 3058 3061 3062 3063 3065 3066 3066 3067 3066 3065 3066 3068 3070 3072 3072 3074 3076 3078 3079 3079 3080 3080 3080 3080 3079 3080 3080 3081 3082 3082 3082 3083 3082 3082 3082 3082 3081 3081 3081 3081 3081 3082 3083 3083 3083 3083 3082 3081 3081 3080 3080 3082 3082 3083 3083 3084 3084 3085 3085 3085 3085 3084 3082 3081 3081 3080 3079 3078 3075 3072 3073 3073 3073 3073 3074 3074 3074 3074 3074 3074 3074 3073 3072 3071 3070 3069
3053 3053 3055 3058 3059 3061 3062 3062 3063 3063 3062 3061 3063 3065 3067 3068 3068 3069 3070 3071 3072 3074 3075 3075 3075 3076 3076 3076 3076 3077 3078 3078 3078 3079 3078 3078 3079 3079 3078 3078 3078 3078 3079 3079 3079 3079 3080 3080 3079 3078 3077 3077 3078 3080 3079 3079 3080 3081 3081 3082 3082 3082 3082 3081 3079 3078 3078 3077 3075 3074 3073 3071 3071 3071 3071 3072 3072 3072 3072 3072 3072 3072 3071 3070 3069 3068 3066 3065
3050 3051 3053 3054 3055 3057 3058 3058 3059 3058 3057 3057 3059 3062 3063 3063 3063 3064 3064 3065 3066 3068 3069 3069 3070 3071 3072 3072 3073 3074 3074 3074 3074 3074 3075 3075 3075 3075 3075 3075 3075 3076 3076 3076 3076 3076 3077 3077 3076 3075 3074 3074 3075 3075 3075 3076 3078 3078 3078 3078 3079 3078 3078 3077 3076 3075 3074 3073 3073 3073 3071 3069 3068 3069 3070 3070 3069 3069 3069 3068 3068 3068 3067 3066 3065 3064 3063 3061
3046 3047 3047 3048 3050 3051 3052 3052 3052 3052 3053 3054 3055 3056 3058 3058 3058 3058 3059 3060 3061 3062 3063 3064 3065 3066 3067 3068 3069 3070 3071 3071 3070 3070 3071 3071 3071 3071 3071 3072 3072 3072 3073 3073 3073 3073 3074 3074 3073 3073 3073 3072 3071 3070 3070 3071 3073 3074 3074 3075 3074 3074 3074 3073 3072 3072 3071 3069 3070 3071 3067 3065 3066 3067 3067 3067 3066 3065 3065 3064 3064 3063 3062 3062 3061 3059 3058 3056
3042 3042 3042 3042 3043 3044 3044 3045 3047 3048 3049 3050 3050 3051 3053 3053 3053 3054 3054 3055 3056 3057 3058 3058 3060 3061 3062 3063 3064 3065 3066 3067 3066 3066 3067 3067 3067 3068 3068 3068 3069 3069 3069 3069 3069 3070 3071 3070 3070 3070 3072 3070 3068 3066 3067 3068 3069 3070 3070 3071 3071 3071 3071 3070 3069 3070 3068 3066 3067 3066 3062 3062 3065 3065 3064 3063 3062 3061 3061 3060 3059 3058 3057 3057 3056 3054 3053 3051
3038 3037 3037 3038 3038 3038 3039 3040 3042 3042 3044 3046 3046 3046 3047 3046 3047 3050 3050 3051 3052 3052 3053 3054 3055 3056 3057 3058 3059 3059 3060 3062 3062 3062 3062 3063 3063 3064 3064 3064 3065 3065 3065 3065 3066 3067 3067 3066 3065 3066 3066 3065 3065 3065 3065 3066 3067 3067 3067 3067 3068 3068 3067 3067 3066 3065 3065 3064 3063 3061 3060 3060 3061 3062 3061 3059 3058 3058 3058 3057 3056 3055 3054 3053 3052 3050 3048 3047
3032 3032 3033 3034 3034 3034 3034 3035 3036 3037 3039 3041 3040 3040 3041 3041 3043 3045 3045 3045 3047 3049 3049 3049 3050 3051 3051 3052 3054 3055 3055 3057 3058 3058 3058 3059 3060 3061 3061 3060 3061 3061 3061 3062 3063 3063 3062 3061 3062 3062 3061 3061 3062 3063 3063 3063 3064 3064 3064 3064 3064 3064 3064 3062 3060 3060 3063 3061 3056 3055 3057 3057 3056 3056 3056 3054 3053 3053 3053 3053 3052 3051 3050 3048 3047 3045 3044 3043
3027 3027 3028 3029 3029 3028 3029 3030 3031 3033 3034 3035 3035 3035 3036 3036 3037 3039 3040 3041 3042 3044 3045 3044 3044 3045 3046 3049 3050 3051 3052 3053 3053 3053 3054 3055 3056 3057 3057 3057 3057 3057 3058 3058 3059 3059 3059 3057 3057 3058 3058 3058 3059 3060 3060 3060 3060 3060 3060 3058 3058 3057 3057 3056 3055 3057 3059 3056 3051 3051 3054 3052 3050 3051 3051 3050 3050 3048 3047 3046 3046 3045 3044 3043 3042 3041 3039 3038
3022 3022 3023 3024 3023 3023 3024 3026 3027 3028 3029 3030 3030 3030 3031 3031 3032 3034 3035 3037 3037 3038 3038 3038 3039 3041 3043 3045 3046 3046 3047 3048 3048 3049 3050 3051 3052 3052 3053 3053 3053 3053 3054 3054 3055 3056 3055 3054 3054 3055 3054 3054 3056 3055 3056 3056 3056 3055 3054 3053 3052 3050 3050 3051 3051 3051 3052 3050 3047 3048 3048 3046 3045 3046 3046 3046 3045 3043 3041 3040 3040 3039 3038 3037 3037 3036 3035 3034
3017 3017 3018 3018 3017 3018 3019 3020 3022 3022 3023 3025 3024 3024 3026 3027 3028 3030 3031 3032 3032 3032 3033 3034 3035 3038 3040 3041 3041 3041 3042 3043 3044 3045 3046 3047 3048 3048 3049 3049 3049 3050 3050 3050 3051 3052 3052 3051 3051 3051 3051 3051 3052 3051 3052 3053 3052 3050 3049 3046 3045 3044 3045 3045 3045 3045 3045 3043 3043 3044 3043 3039 3040 3042 3042 3041 3040 3038 3036 3035 3034 3034 3034 3033 3033 3032 3031 3029
3010 3011 3012 3012 3013 3014 3014 3014 3016 3017 3018 3019 3017 3019 3021 3022 3024 3027 3028 3028 3028 3029 3030 3031 3032 3035 3036 3037 3037 3037 3038 3040 3040 3041 3043 3043 3044 3045 3045 3045 3045 3046 3046 3047 3047 3048 3048 3049 3048 3049 3048 3047 3047 3048 3049 3049 3049 3047 3042 3038 3037 3039 3039 3038 3039 3039 3039 3037 3038 3039 3036 3034 3036 3039 3037 3036 3035 3034 3032 3030 3029 3029 3029 3030 3030 3029 3027 3025
3004 3005 3006 3007 3008 3009 3009 3009 3011 3011 3011 3012 3013 3015 3017 3018 3020 3023 3024 3024 3025 3025 3027 3028 3029 3031 3031 3032 3033 3034 3035 3036 3037 3038 3039 3039 3040 3041 3041 3042 3042 3042 3043 3044 3044 3044 3045 3045 3046 3047 3046 3044 3045 3045 3045 3047 3047 3040 3032 3030 3033 3034 3033 3033 3033 3033 3033 3033 3033 3032 3030 3030 3033 3034 3032 3031 3030 3029 3028 3026 3025 3025 3026 3027 3026 3025 3023 3021